www.pogodaiklimat.ru

Погода и климат >> Архив погоды >> Россия >> Московская область >> Мелихово


ПОГОДА в Мелихово

  • Прогноз погоды в Мелихово
  • Монитор погоды в Мелихово

АРХИВ ПОГОДЫ в Мелихово

Время (UTC), дата Ветер
(напр.,м/с)
 
Видим.   Явления Облачность Т
(С)
Тd
(С)
f
(%)
Тe
(С)
Тes
(С)
Комфортность P
(гПа)
Po
(гПа)
Тmin
(С)
Tmax
(С)
R
(мм)
R24
(мм)
S
(см)
09 9.09 С 1 н/о н/о +22.4 +13.2 56 +25 +25 комфорт 1028.1 1006.7
12 9.09 СЗ 1 н/о н/о +22.4 +11.2 49 +25 +25 комфорт 1027.4 1006.0
15 9.09 штиль 0 н/о н/о +20.7 +15.2 71 +23 +23 комфорт 1026.9 1005.4
18 9.09 штиль 0 н/о н/о +12.0 +11.5 97 +11 +11 по сезону 1027.8 1005.6 +22.9
21 9.09 штиль 0 н/о н/о +9.6 +9.2 97 +9 +9 по сезону 1028.0 1005.6
00 10.09 штиль 0 н/о н/о +8.4 +8.2 99 +7 +7 по сезону 1028.5 1005.9
03 10.09 штиль 0 н/о н/о +7.4 +7.2 99 +6 +6 прохладно 1028.7 1006.0 +7.4
06 10.09 штиль 0 н/о н/о +17.0 +14.0 82 +17 +17 тепло 1028.0 1006.2 +7.4
09 10.09 штиль 0 н/о н/о +22.6 +14.2 59 +26 +26 жарко 1027.5 1006.1
12 10.09 В 1 н/о н/о +23.7 +12.0 48 +25 +25 комфорт 1027.1 1005.8
15 10.09 штиль 0 н/о н/о +22.3 +14.5 61 +26 +26 жарко 1027.0 1005.6
18 10.09 штиль 0 н/о н/о +13.4 +13.0 97 +13 +13 тепло 1028.3 1006.2 +24.2
21 10.09 штиль 0 н/о н/о +11.3 +10.8 97 +11 +11 по сезону 1028.6 1006.3
00 11.09 штиль 0 н/о н/о +9.9 +9.5 97 +9 +9 по сезону 1029.4 1007.0
03 11.09 штиль 0 н/о н/о +10.1 +9.7 97 +9 +9 по сезону 1030.3 1007.8 +9.1
06 11.09 штиль 0 н/о н/о +18.1 +11.0 63 +18 +18 тепло 1030.0 1008.2 +9.1
09 11.09 Ю 1 н/о н/о +24.1 +9.0 38 +25 +25 комфорт 1029.8 1008.4
12 11.09 Ю 1 н/о н/о +25.6 +7.7 32 +26 +26 жарко 1029.2 1007.9
15 11.09 ЮВ 1 н/о н/о +22.3 +12.5 54 +25 +25 комфорт 1028.4 1007.0
18 11.09 штиль 0 н/о н/о +11.5 +10.7 95 +11 +11 по сезону 1029.4 1007.2 +25.8
21 11.09 штиль 0 н/о н/о +9.1 +8.5 96 +8 +8 по сезону 1029.6 1007.1
00 12.09 штиль 0 н/о н/о +7.8 +7.5 98 +7 +7 по сезону 1029.6 1007.0
03 12.09 штиль 0 н/о н/о +6.3 +6.0 98 +5 +5 прохладно 1029.7 1006.9 +6.2
06 12.09 штиль 0 н/о н/о +16.2 +10.0 67 +16 +16 тепло 1028.7 1006.7 +6.1
12 12.09 Ю 2 н/о н/о +25.2 +6.5 30 +25 +25 комфорт 1026.1 1004.9
15 12.09 штиль 0 н/о н/о +22.9 +7.8 38 +24 +24 комфорт 1025.1 1003.7
18 12.09 штиль 0 н/о н/о +11.2 +10.2 94 +10 +10 по сезону 1025.6 1003.3 +25.3
21 12.09 штиль 0 н/о н/о +8.8 +8.2 96 +8 +8 по сезону 1024.8 1002.4
00 13.09 штиль 0 н/о н/о +7.9 +7.7 99 +7 +7 по сезону 1023.8 1001.4
03 13.09 штиль 0 н/о н/о +7.4 +7.2 99 +6 +6 по сезону 1022.9 1000.4 +7.4
06 13.09 штиль 0 н/о н/о +15.9 +9.5 66 +16 +16 тепло 1021.3 999.5 +7.0
09 13.09 Ю 1 н/о н/о +21.8 +9.2 45 +23 +23 комфорт 1019.8 998.4
12 13.09 ЮЗ 2 н/о н/о +22.9 +10.0 44 +25 +25 комфорт 1018.3 997.1
15 13.09 ЮЗ 1 н/о н/о +21.2 +10.4 50 +23 +23 комфорт 1016.8 995.5
18 13.09 штиль 0 н/о н/о +12.5 +11.0 91 +12 +12 тепло 1016.1 994.1 +23.7
21 13.09 штиль 0 н/о н/о +14.5 +11.0 80 +14 +14 тепло 1014.0 992.3
00 14.09 Ю 1 н/о н/о +15.1 +11.0 76 +16 +16 тепло 1011.4 989.8
03 14.09 ЮЗ 2 н/о н/о +14.0 +11.5 85 +13 +13 тепло 1010.9 989.2 +11.8 0.2
06 14.09 З 3 н/о н/о +13.6 +8.0 69 +13 +13 тепло 1012.8 991.1 +11.8 0.2
09 14.09 З 2 н/о н/о +13.5 +7.8 68 +13 +13 тепло 1014.6 992.7
12 14.09 З 3 н/о н/о +15.2 +4.5 49 +15 +15 тепло 1015.2 993.5
15 14.09 З 2 н/о н/о +14.1 +3.5 49 +14 +14 тепло 1016.1 994.3
18 14.09 штиль 0 н/о н/о +8.4 +5.5 82 +8 +8 по сезону 1017.3 995.0 +16.2
21 14.09 З 1 н/о н/о +7.8 +4.8 81 +7 +7 по сезону 1017.3 995.0
00 15.09 штиль 0 н/о н/о +7.4 +5.2 86 +7 +7 по сезону 1016.9 994.5
03 15.09 ЮЗ 1 н/о н/о +6.8 +5.2 90 +6 +6 по сезону 1017.1 994.7 +6.8
06 15.09 З 2 н/о н/о +7.7 +5.5 86 +6 +6 по сезону 1017.2 994.8 +6.3
09 15.09 З 2 н/о н/о +10.7 +4.8 67 +10 +10 по сезону 1016.7 994.6
12 15.09 З 2 н/о н/о +13.6 +3.0 49 +13 +13 по сезону 1014.4 992.6
15 15.09 штиль 0 н/о н/о +11.6 +3.2 56 +11 +11 по сезону 1012.1 990.2

 

Местоположение метеостанции Мелихово (Московская область, Россия): широта 55.12 долгота 37.65 высота над уровнем моря 184 м.

В архиве по умолчанию представлена погода в Мелихово за последнюю неделю. Архивные данные за месяц целиком и за предыдущие месяцы, начиная с января 2011 года, Вы можете получить, выбрав интересующий диапазон дат из раскрывающегося списка и нажав кнопку "Ввод!".


*Определитесь, кто Вы:
робот инопланетянин человек

Внимание! Время в таблицах - всемирное. Для получения местного времени необходимо прибавить поправку, которая равна 3 ч.

Смотрите также архив погоды в соседних городах и на ближайших метеорологических станциях:

Погода в Михнево (Московская область, Россия) (20 км)
Погода в Серпухове (Московская область, Россия) (24 км)
Погода в Домодедово (Московская область, Россия) (35 км)
Погода в Михайловском (город Москва, Россия) (40 км)
Погода в Горках Ленинских (Московская область, Россия) (45 км)
Погода в Кашире (Московская область, Россия) (45 км)
Погода в Москве (Бутово) (город Москва, Россия) (50 км)
Погода в Внуково (Московская область, Россия) (58 км)
Погода в Толстопальцево (город Москва, Россия) (59 км)
Погода в Люберцах (Московская область, Россия) (66 км)

Пояснения к столбцам:

Ветер - указаны скорость ветра в м/с - средняя за 10 мин, порывы в срок и между сроками (в фигурных скобках) и направление, откуда дует ветер: С - северный, СВ - северо-восточный, В - восточный, ЮВ - юго-восточный, Ю - южный, ЮЗ - юго-западный, З - западный, СЗ - северо-западный.
Видимость - горизонтальная дальность видимости в метрах или километрах. При видимости от 1 до 10 км при отсутствии осадков обычно наблюдается дымка, при ухудшении видимости до 1 км и менее - туман. В сухую погоду видимость может ухудшаться дымом, пылью или мглою.
Явления - указаны атмосферные явления, наблюдавшиеся в срок или в последний час перед сроком; фигурными скобками обозначены явления, наблюдавшиеся между сроками (за 1-3 часа до срока); квадратными скобками обозначены град или гололедные отложения с указанием их диаметра в мм.
Облачность - указаны через наклонную черту общая и нижняя облачность в баллах и высота нижней границы облаков в метрах; квадратными скобками обозначены формы облаков: Ci - перистые, Cs - перисто-слоистые, Cc - перисто-кучевые, Ac - высококучевые, As - высокослоистые, Sc - слоисто-кучевые, Ns - слоисто-дождевые, Cu - кучевые, Cb - кучево-дождевые. Подробнее классификацию облаков см. в Атласе облаков (PDF).
T - Температура воздуха - температура, измеренная на высоте 2 м над землей.
Td - Температура точки росы - температура, при понижении до которой содержащийся в воздухе водяной пар достигнет насыщения.
f - Относительная влажность воздуха - влажноcть воздуха, измеренная на высоте 2 м над землей.
Te - Эффективная температура - температура, которую ощущает одетый по сезону человек в тени. Характеристика душности погоды. При расчете учитывается влияние влажности воздуха и скорости ветра на теплоощущения человека.
Tes - Эффективная температура на солнце - температура, которую ощущает человек, с поправкой на солнечный нагрев. Характеристика знойности погоды. Зависит от высоты солнца над горизонтом, облачности и скорости ветра. Ночью, в пасмурную погоду, а также при ветре 12 м/с и более поправка равна нулю.
P - Атмосферное давление - приведенное к уровню моря атмосферное давление.
Po - Атмосферное давление - измеренное на уровне метеостанции атмосферное давление.
Tmin - Минимальная температура - минимум температуры воздуха на высоте 2 м над землей.
Tmax - Максимальная температура - максимум температуры воздуха на высоте 2 м над землей.
R - Количество осадков - Количество выпавших осадков за период времени, мм. При наведении курсора мыши на число - период времени, за который выпало указанное количество осадков.
R24 - Количество осадков - Количество выпавших осадков за 24 часа, мм.
S - Снежный покров - Высота снежного покрова, см. При наведении курсора мыши на число - состояние снежного покрова и степень покрытия местности в баллах.